Flag for Canada Weather past 2 weeks in Langley, British Columbia, Canada

Now
54 °F

Cool.


Feels Like: 54 °F
Forecast: 54 / 63 °F
Wind: 3 mph from Southeast

Location: P. Meadows Coastal Station

Current Time: Jun 3, 2015 at 6:50:01 AM

Latest Report: Jun 3, 2015 at 6:00 AM


Visibility: N/A

Pressure: 30.04 "Hg

Humidity: 84%

Dew point: 50 °F

Location of LangleyLocation

Historic Weather in Langley — Graph

°F

Langley temperature yesterday

Maximum temperature yesterday: 62 °F (at 5:00 PM)
Minimum temperature yesterday: 54 °F (at 9:00 AM)
Average temperature yesterday: 58 °F

Past Weeks' High & Low Weather Summary

 TemperatureHumidityPressure
High80 °F (May 29, 4:00 PM)98% (May 22, 5:00 AM)30.18 "Hg (May 22, 5:00 AM)
Low50 °F (May 31, 5:00 AM)35% (May 31, 5:00 PM)29.76 "Hg (May 31, 11:00 PM)
Average63 °F73%29.97 "Hg
* Reported May 19 5:00 AM — Jun 3 5:00 AM, Langley, Weather by CustomWeather, © 2015

Note: Actual official high and low records may vary slightly from our data, if they occured in-between our weather recording intervals... More about our weather records

Advertising

Langley weather history for previous 24 hours

 ConditionsComfort  
Time TempWeatherWind HumidityBarometerVisibility
5:00 AM
Wed, Jun 3
55 °FCool.2 mph86%30.03 "HgN/A
4:00 AM55 °FCool.2 mph86%30.03 "HgN/A
3:00 AM55 °FCool.2 mph79%30.03 "HgN/A
2:00 AM55 °FCool.2 mph79%30.04 "HgN/A
1:00 AM56 °FCool.5 mph78%30.04 "HgN/A
12:00 AM56 °FCool.5 mph82%30.04 "HgN/A
10:00 PM
Tue, Jun 2
58 °FCool.3 mph72%30.03 "HgN/A
9:00 PM59 °FCool.No wind75%30.02 "HgN/A
8:00 PM58 °FCool.1 mph78%30.02 "HgN/A
7:00 PM61 °FCool.2 mph69%30.02 "HgN/A
6:00 PM61 °FCool.5 mph65%30.01 "HgN/A
5:00 PM62 °FCool.2 mph71%30.00 "HgN/A
4:00 PM61 °FCool.5 mph77%30.01 "HgN/A
3:00 PM58 °FCool.2 mph84%30.01 "HgN/A
2:00 PM60 °FCool.3 mph82%30.00 "HgN/A
1:00 PM58 °FCool.6 mph89%29.99 "HgN/A
12:00 PM58 °FCool.5 mph86%29.99 "HgN/A
11:00 AM57 °FCool.5 mph94%29.98 "HgN/A
10:00 AM56 °FCool.6 mph92%29.98 "HgN/A
9:00 AM54 °FCool.5 mph98%29.98 "HgN/A
8:00 AM56 °FCool.5 mph96%29.96 "HgN/A
7:00 AM55 °FCool.5 mph96%29.95 "HgN/A
6:00 AM55 °FCool.3 mph96%29.94 "HgN/A
Weather by CustomWeather, © 2015

See weather overviewHow to use our weather pages